H1 CPF 2 NER 2025 7 26 9 207 01 glonass129 H2 1106402 9129 37868 2025 7 26 0 0 0 2025 7 29 23 45 0 900 1 1 0 0 0 1 H9 10 0 60882 0.00000 0 -5580863.015 16139546.913 -18932043.744 10 0 60882 900.00000 0 -7159738.022 17701388.591 -16904271.809 10 0 60882 1800.00000 0 -8430105.582 19182140.488 -14547926.843 10 0 60882 2700.00000 0 -9387616.403 20518758.441 -11908991.984 10 0 60882 3600.00000 0 -10040811.564 21650693.336 -9038876.941 10 0 60882 4500.00000 0 -10410483.464 22522449.544 -5993407.979 10 0 60882 5400.00000 0 -10528528.413 23085945.751 -2831737.213 10 0 60882 6300.00000 0 -10436341.887 23302579.986 384807.131 10 0 60882 7200.00000 0 -10182826.242 23144913.396 3593906.919 10 0 60882 8100.00000 0 -9822096.307 22597903.583 6733453.967 10 0 60882 9000.00000 0 -9410980.350 21659637.200 9742740.847 10 0 60882 9900.00000 0 -9006421.770 20341532.409 12563620.418 10 0 60882 10800.00000 0 -8662890.409 18668003.614 15141612.896 10 0 60882 11700.00000 0 -8429911.428 16675602.908 17426940.552 10 0 60882 12600.00000 0 -8349814.421 14411673.857 19375471.681 10 0 60882 13500.00000 0 -8455796.046 11932572.883 20949557.327 10 0 60882 14400.00000 0 -8770376.452 9301530.791 22118746.240 10 0 60882 15300.00000 0 -9304313.572 6586241.344 22860365.621 10 0 60882 16200.00000 0 -10056020.793 3856274.657 23159957.432 10 0 60882 17100.00000 0 -11011513.030 1180420.159 23011562.346 10 0 60882 18000.00000 0 -12144884.861 -1375933.083 22417845.756 10 0 60882 18900.00000 0 -13419302.689 -3753272.274 21390062.704 10 0 60882 19800.00000 0 -14788471.905 -5900192.032 19947861.151 10 0 60882 20700.00000 0 -16198520.269 -7775289.212 18118925.606 10 0 60882 21600.00000 0 -17590221.219 -9348643.116 15938465.967 10 0 60882 22500.00000 0 -18901466.172 -10602819.314 13448559.167 10 0 60882 23400.00000 0 -20069883.677 -11533354.487 10697354.236 10 0 60882 24300.00000 0 -21035496.252 -12148700.978 7738154.270 10 0 60882 25200.00000 0 -21743303.081 -12469632.288 4628391.606 10 0 60882 26100.00000 0 -22145678.883 -12528133.347 1428515.301 10 0 60882 27000.00000 0 -22204486.073 -12365821.629 -1799187.734 10 0 60882 27900.00000 0 -21892808.814 -12031965.431 -4991814.514 10 0 60882 28800.00000 0 -21196233.060 -11581183.425 -8087085.789 10 0 60882 29700.00000 0 -20113615.844 -11070923.799 -11024578.143 10 0 60882 30600.00000 0 -18657308.838 -10558831.273 -13746922.503 10 0 60882 31500.00000 0 -16852824.657 -10100115.515 -16200943.569 10 0 60882 32400.00000 0 -14737958.587 -9745034.661 -18338716.031 10 0 60882 33300.00000 0 -12361401.892 -9536602.738 -20118515.211 10 0 60882 34200.00000 0 -9780904.949 -9508620.077 -21505642.228 10 0 60882 35100.00000 0 -7061067.787 -9684111.626 -22473106.720 10 0 60882 36000.00000 0 -4270851.452 -10074240.243 -23002153.443 10 0 60882 36900.00000 0 -1480915.432 -10677741.322 -23082622.563 10 0 60882 37800.00000 0 1239106.639 -11480902.419 -22713137.216 10 0 60882 38700.00000 0 3823278.610 -12458088.050 -21901115.568 10 0 60882 39600.00000 0 6211869.081 -13572786.362 -20662608.331 10 0 60882 40500.00000 0 8353590.203 -14779132.213 -19021966.273 10 0 60882 41400.00000 0 10207475.793 -16023841.004 -17011345.592 10 0 60882 42300.00000 0 11744322.186 -17248470.440 -14670062.259 10 0 60882 43200.00000 0 12947634.129 -18391913.833 -12043809.227 10 0 60882 44100.00000 0 13814039.106 -19393019.232 -9183752.962 10 0 60882 45000.00000 0 14353155.908 -20193223.762 -6145527.907 10 0 60882 45900.00000 0 14586926.190 -20739092.461 -2988149.252 10 0 60882 46800.00000 0 14548440.089 -20984655.392 227134.414 10 0 60882 47700.00000 0 14280307.804 -20893445.677 3438026.030 10 0 60882 48600.00000 0 13832647.594 -20440154.017 6582379.744 10 0 60882 49500.00000 0 13260776.095 -19611831.502 9599392.660 10 0 60882 50400.00000 0 12622698.637 -18408591.443 12430766.367 10 0 60882 51300.00000 0 11976504.939 -16843781.747 15021817.048 10 0 60882 52200.00000 0 11377778.892 -14943621.075 17322514.157 10 0 60882 53100.00000 0 10877130.042 -12746313.913 19288429.245 10 0 60882 54000.00000 0 10517949.017 -10300680.704 20881578.324 10 0 60882 54900.00000 0 10334479.659 -7664358.713 22071143.131 10 0 60882 55800.00000 0 10350287.587 -4901646.480 22834058.758 10 0 60882 56700.00000 0 10577188.705 -2081079.010 23155457.291 10 0 60882 57600.00000 0 11014682.503 727168.386 23028959.430 10 0 60882 58500.00000 0 11649914.585 3453942.546 22456808.363 10 0 60882 59400.00000 0 12458171.307 6033733.343 21449842.654 10 0 60882 60300.00000 0 13403887.796 8407146.348 20027307.392 10 0 60882 61200.00000 0 14442129.356 10523126.113 18216505.542 10 0 60882 62100.00000 0 15520486.612 12340838.520 16052294.139 10 0 60882 63000.00000 0 16581307.106 13831133.985 13576432.847 10 0 60882 63900.00000 0 17564171.409 14977530.010 10836795.327 10 0 60882 64800.00000 0 18408510.757 15776671.083 7886456.755 10 0 60882 65700.00000 0 19056256.321 16238245.427 4782673.721 10 0 60882 66600.00000 0 19454407.867 16384360.871 1585775.419 10 0 60882 67500.00000 0 19557411.990 16248405.027 -1642012.539 10 0 60882 68400.00000 0 19329247.427 15873437.181 -4837788.408 10 0 60882 69300.00000 0 18745126.698 15310179.708 -7939213.823 10 0 60882 70200.00000 0 17792739.379 14614694.429 -10885746.853 10 0 60882 71100.00000 0 16472981.702 13845843.379 -13619842.712 10 0 60882 72000.00000 0 14800139.199 13062643.069 -16088096.607 10 0 60882 72900.00000 0 12801512.747 12321626.256 -18242304.517 10 0 60882 73800.00000 0 10516502.431 11674324.927 -20040419.444 10 0 60882 74700.00000 0 7995187.132 11164982.975 -21447383.102 10 0 60882 75600.00000 0 5296459.505 10828596.900 -22435815.915 10 0 60882 76500.00000 0 2485795.003 10689368.435 -22986551.476 10 0 60882 77400.00000 0 -367250.786 10759634.948 -23089005.118 10 0 60882 78300.00000 0 -3191710.968 11039322.581 -22741369.964 10 0 60882 79200.00000 0 -5917930.106 11515944.453 -21950637.534 10 0 60882 80100.00000 0 -8480226.861 12165142.686 -20732443.693 10 0 60882 81000.00000 0 -10819385.515 12951749.814 -19110744.291 10 0 60882 81900.00000 0 -12884873.194 13831323.008 -17117328.239 10 0 60882 82800.00000 0 -14636691.633 14752084.691 -14791178.945 10 0 60882 83700.00000 0 -16046788.185 15657186.132 -12177697.889 10 0 60882 84600.00000 0 -17099969.689 16487197.393 -9327806.665 10 0 60882 85500.00000 0 -17794283.849 17182717.822 -6296945.997 10 0 60883 0.00000 0 -18140855.237 17686996.750 -3143992.299 10 0 60883 900.00000 0 -18163185.975 17948454.350 69888.375 10 0 60883 1800.00000 0 -17895952.749 17922996.475 3282422.261 10 0 60883 2700.00000 0 -17383353.603 17576027.891 6431428.498 10 0 60883 3600.00000 0 -16677075.003 16884079.606 9456011.513 10 0 60883 4500.00000 0 -15833965.776 15835983.403 12297724.535 10 0 60883 5400.00000 0 -14913515.743 14433545.147 14901682.681 10 0 60883 6300.00000 0 -13975244.403 12691689.248 17217605.568 10 0 60883 7200.00000 0 -13076108.199 10638068.274 19200770.920 10 0 60883 8100.00000 0 -12268033.680 8312153.448 20812862.494 10 0 60883 9000.00000 0 -11595678.313 5763842.677 22022697.591 10 0 60883 9900.00000 0 -11094511.307 3051642.209 22806821.477 10 0 60883 10800.00000 0 -10789293.575 240495.121 23149958.307 10 0 60883 11700.00000 0 -10693019.802 -2600655.970 23045310.335 10 0 60883 12600.00000 0 -10806366.892 -5401473.633 22494699.629 10 0 60883 13500.00000 0 -11117672.512 -8092892.521 21508548.856 10 0 60883 14400.00000 0 -11603445.935 -10609740.191 20105700.310 10 0 60883 15300.00000 0 -12229391.593 -12893204.893 18313074.955 10 0 60883 16200.00000 0 -12951904.456 -14893048.968 16165176.003 10 0 60883 17100.00000 0 -13719976.609 -16569476.203 13703444.400 10 0 60883 18000.00000 0 -14477436.701 -17894575.038 10975476.543 10 0 60883 18900.00000 0 -15165429.416 -18853276.481 8034117.421 10 0 60883 19800.00000 0 -15725031.063 -19443785.422 4936445.272 10 0 60883 20700.00000 0 -16099890.813 -19677465.793 1742666.570 10 0 60883 21600.00000 0 -16238784.943 -19578183.064 -1485057.464 10 0 60883 22500.00000 0 -16097974.347 -19181130.717 -4683829.598 10 0 60883 23400.00000 0 -15643263.200 -18531189.641 -7791255.767 10 0 60883 24300.00000 0 -14851668.914 -17680889.768 -10746679.044 10 0 60883 25200.00000 0 -13712629.887 -16688060.799 -13492382.476 10 0 60883 26100.00000 0 -12228697.241 -15613272.596 -15974735.267 10 0 60883 27000.00000 0 -10415679.043 -14517175.180 -18145258.013 10 0 60883 27900.00000 0 -8302229.069 -13457852.684 -19961584.428 10 0 60883 28800.00000 0 -5928896.352 -12488305.010 -21388299.439 10 0 60883 29700.00000 0 -3346674.933 -11654165.194 -22397636.348 10 0 60883 30600.00000 0 -615114.775 -10991750.037 -22970019.092 10 0 60883 31500.00000 0 2199926.457 -10526526.829 -23094439.041 10 0 60883 32400.00000 0 5028795.934 -10272060.741 -22768659.570 10 0 60883 33300.00000 0 7800716.754 -10229486.500 -21999245.244 10 0 60883 34200.00000 0 10446505.388 -10387525.232 -20801416.248 10 0 60883 35100.00000 0 12901221.884 -10723043.989 -19198732.215 10 0 60883 36000.00000 0 15106642.549 -11202132.241 -17222613.034 10 0 60883 36900.00000 0 17013452.772 -11781647.828 -14911707.409 10 0 60883 37800.00000 0 18583069.978 -12411165.090 -12311122.824 10 0 60883 38700.00000 0 19789022.631 -13035241.297 -9471533.115 10 0 60883 39600.00000 0 20617830.154 -13595904.384 -6448182.093 10 0 60883 40500.00000 0 21069349.768 -14035256.267 -3299803.403 10 0 60883 41400.00000 0 21156578.619 -14298081.622 -87478.134 10 0 60883 42300.00000 0 20904922.263 -14334352.347 3126547.378 10 0 60883 43200.00000 0 20350962.594 -14101522.796 6280060.742 10 0 60883 44100.00000 0 19540778.788 -13566520.093 9312076.964 10 0 60883 45000.00000 0 18527892.956 -12707346.810 12164003.845 10 0 60883 45900.00000 0 17370927.166 -11514229.669 14780757.982 10 0 60883 46800.00000 0 16131069.876 -9990266.729 17111811.266 10 0 60883 47700.00000 0 14869457.078 -8151546.219 19112149.263 10 0 60883 48600.00000 0 13644576.496 -6026731.653 20743124.702 10 0 60883 49500.00000 0 12509801.794 -3656129.527 21973191.237 10 0 60883 50400.00000 0 11511158.221 -1090276.770 22778504.696 10 0 60883 51300.00000 0 10685411.535 1611895.537 23143381.285 10 0 60883 52200.00000 0 10058558.868 4385248.607 23060604.448 10 0 60883 53100.00000 0 9644783.989 7160884.635 22531574.409 10 0 60883 54000.00000 0 9445920.607 9868759.052 21566296.928 10 0 60883 54900.00000 0 9451446.820 12440350.594 20183210.226 10 0 60883 55800.00000 0 9639012.133 14811280.450 18408851.762 10 0 60883 56700.00000 0 9975476.621 16923773.188 16277369.235 10 0 60883 57600.00000 0 10418420.409 18728857.811 13829883.033 10 0 60883 58500.00000 0 10918061.814 20188217.176 11113710.314 10 0 60883 59400.00000 0 11419504.820 21275607.853 8181463.782 10 0 60883 60300.00000 0 11865222.038 21977789.793 5090041.129 10 0 60883 61200.00000 0 12197668.483 22294925.232 1899523.822 10 0 60883 62100.00000 0 12361915.046 22240428.506 -1327993.630 10 0 60883 63000.00000 0 12308188.845 21840271.618 -4529620.831 10 0 60883 63900.00000 0 11994210.796 21131773.816 -7642910.281 10 0 60883 64800.00000 0 11387228.845 20161925.787 -10607092.207 10 0 60883 65700.00000 0 10465657.908 18985319.388 -13364279.500 10 0 60883 66600.00000 0 9220254.310 17661771.160 -15860617.213 10 0 60883 67500.00000 0 7654772.429 16253741.345 -18047352.235 10 0 60883 68400.00000 0 5786073.688 14823659.038 -19881800.533 10 0 60883 69300.00000 0 3643681.716 13431268.192 -21328191.649 10 0 60883 70200.00000 0 1268801.469 12131108.072 -22358373.049 10 0 60883 71100.00000 0 -1287156.778 10970235.651 -22952360.147 10 0 60883 72000.00000 0 -3964486.429 9986286.683 -23098721.316 10 0 60883 72900.00000 0 -6697446.015 9205957.132 -22794790.893 10 0 60883 73800.00000 0 -9416777.736 8643968.243 -22046706.884 10 0 60883 74700.00000 0 -12052377.112 8302557.499 -20869273.814 10 0 60883 75600.00000 0 -14536001.744 8171514.967 -19285654.709 10 0 60883 76500.00000 0 -16803906.054 8228761.211 -17326899.642 10 0 60883 77400.00000 0 -18799292.356 8441439.936 -15031321.450 10 0 60883 78300.00000 0 -20474476.959 8767476.796 -12443732.149 10 0 60883 79200.00000 0 -21792682.334 9157536.401 -9614556.114 10 0 60883 80100.00000 0 -22729382.483 9557293.056 -6598838.357 10 0 60883 81000.00000 0 -23273147.660 9909918.036 -3455168.022 10 0 60883 81900.00000 0 -23425955.718 10158677.642 -244538.533 10 0 60883 82800.00000 0 -23202959.659 10249532.151 2970833.173 10 0 60883 83700.00000 0 -22631723.546 10133626.336 6128705.538 10 0 60883 84600.00000 0 -21750960.836 9769567.264 9168006.627 10 0 60883 85500.00000 0 -20608829.440 9125394.365 12030001.404 10 0 60884 0.00000 0 -19260855.861 8180160.002 14659410.382 10 0 60884 900.00000 0 -17767574.647 6925054.369 17005460.875 10 0 60884 1800.00000 0 -16191983.155 5364029.353 19022848.657 10 0 60884 2700.00000 0 -14596914.458 3513893.465 20672597.898 10 0 60884 3600.00000 0 -13042438.282 1403874.331 21922800.847 10 0 60884 4500.00000 0 -11583395.976 -925334.826 22749225.846 10 0 60884 5400.00000 0 -10267170.666 -3423006.999 23135782.761 10 0 60884 6300.00000 0 -9131784.009 -6030234.502 23074837.435 10 0 60884 7200.00000 0 -8204397.805 -8682129.225 22567369.066 10 0 60884 8100.00000 0 -7500282.397 -11310281.661 21622966.885 10 0 60884 9000.00000 0 -7022294.939 -13845379.428 20259664.992 10 0 60884 9900.00000 0 -6760890.030 -16219878.930 18503616.864 10 0 60884 10800.00000 0 -6694663.338 -18370620.896 16388613.790 10 0 60884 11700.00000 0 -6791406.942 -20241282.058 13955454.308 10 0 60884 12600.00000 0 -7009633.593 -21784560.985 11251174.685 10 0 60884 13500.00000 0 -7300507.186 -22964006.309 8328153.377 10 0 60884 14400.00000 0 -7610099.100 -23755409.724 5243105.298 10 0 60884 15300.00000 0 -7881875.574 -24147703.681 2055984.462 10 0 60884 16200.00000 0 -8059310.683 -24143324.290 -1171183.982 10 0 60884 17100.00000 0 -8088513.261 -23758022.351 -4375519.284 10 0 60884 18000.00000 0 -7920754.750 -23020128.970 -7494523.483 10 0 60884 18900.00000 0 -7514788.532 -21969305.736 -10467317.066 10 0 60884 19800.00000 0 -6838859.751 -20654831.796 -13235845.956 10 0 60884 20700.00000 0 -5872317.663 -19133500.416 -15746034.254 10 0 60884 21600.00000 0 -4606759.573 -17467214.668 -17948858.271 10 0 60884 22500.00000 0 -3046655.580 -15720385.003 -19801319.156 10 0 60884 23400.00000 0 -1209425.892 -13957240.031 -21267293.694 10 0 60884 24300.00000 0 875033.830 -12239165.399 -22318245.730 10 0 60884 25200.00000 0 3165359.813 -10622184.153 -22933783.895 10 0 60884 26100.00000 0 5610217.937 -9154685.480 -23102054.783 10 0 60884 27000.00000 0 8150228.729 -7875497.592 -22819964.380 10 0 60884 27900.00000 0 10720238.303 -6812385.292 -22093224.321 10 0 60884 28800.00000 0 13251839.415 -5981034.184 -20936223.171 10 0 60884 29700.00000 0 15676036.527 -5384562.376 -19371726.590 10 0 60884 30600.00000 0 17925943.133 -5013577.806 -17430413.624 10 0 60884 31500.00000 0 19939398.539 -4846776.103 -15150259.578 10 0 60884 32400.00000 0 21661395.304 -4852050.964 -12575778.874 10 0 60884 33300.00000 0 23046216.891 -4988067.541 -9757143.850 10 0 60884 34200.00000 0 24059197.657 -5206230.107 -6749197.735 10 0 60884 35100.00000 0 24678033.565 -5452959.033 -3610381.837 10 0 60884 36000.00000 0 24893591.002 -5672179.646 -401598.347 10 0 60884 36900.00000 0 24710182.245 -5807917.185 2814968.878 10 0 60884 37800.00000 0 24145298.320 -5806888.219 5977052.767 10 0 60884 38700.00000 0 23228812.499 -5620979.624 9023497.948 10 0 60884 39600.00000 0 22001689.313 -5209511.394 11895429.772 10 0 60884 40500.00000 0 20514254.123 -4541188.969 14537375.995 10 0 60884 41400.00000 0 18824095.866 -3595663.910 16898320.882 10 0 60884 42300.00000 0 16993690.268 -2364638.061 18932672.959 10 0 60884 43200.00000 0 15087841.705 -852465.185 20601129.455 10 0 60884 44100.00000 0 13171048.887 923775.503 21871422.411 10 0 60884 45000.00000 0 11304902.316 2934737.956 22718933.447 10 0 60884 45900.00000 0 9545619.949 5139782.677 23127166.437 10 0 60884 46800.00000 0 7941821.756 7488426.609 23088069.548 10 0 60884 47700.00000 0 6532634.338 9922211.952 22602200.448 10 0 60884 48600.00000 0 5346203.405 12376919.159 21678730.928 10 0 60884 49500.00000 0 4398675.622 14785035.087 20335289.661 10 0 60884 50400.00000 0 3693692.424 17078376.287 18597644.494 10 0 60884 51300.00000 0 3222417.573 19190760.427 16499228.355 10 0 60884 52200.00000 0 2964098.413 21060616.022 14080515.733 10 0 60884 53100.00000 0 2887138.564 22633422.153 11388259.610 10 0 60884 54000.00000 0 2950638.301 23863876.059 8474601.652 10 0 60884 54900.00000 0 3106338.815 24717696.865 5396071.342 10 0 60884 55800.00000 0 3300888.963 25172988.210 2212492.526 10 0 60884 56700.00000 0 3478338.692 25221100.588 -1014181.729 10 0 60884 57600.00000 0 3582752.948 24866955.062 -4221082.987 10 0 60884 58500.00000 0 3560833.920 24128812.772 -7345665.374 10 0 60884 59400.00000 0 3364438.451 23037498.467 -10326941.997 10 0 60884 60300.00000 0 2952881.437 21635109.819 -13106693.949 10 0 60884 61200.00000 0 2294924.831 19973266.679 -15630626.265 10 0 60884 62100.00000 0 1370365.306 18110974.459 -17849446.315 10 0 60884 63000.00000 0 171150.867 16112192.589 -19719841.838 10 0 60884 63900.00000 0 -1298022.866 14043211.813 -21205338.057 10 0 60884 64800.00000 0 -3019663.405 11969952.110 -22277016.194 10 0 60884 65700.00000 0 -4963982.210 9955296.243 -22914078.903 10 0 60884 66600.00000 0 -7089924.775 8056571.995 -23104251.563 10 0 60884 67500.00000 0 -9346686.575 6323289.283 -22844012.116 10 0 60884 68400.00000 0 -11675650.652 4795226.907 -22138645.791 10 0 60884 69300.00000 0 -14012664.841 3500948.297 -21002124.801 10 0 60884 70200.00000 0 -16290562.435 2456806.853 -19456816.654 10 0 60884 71100.00000 0 -18441820.141 1666480.341 -17533028.201 10 0 60884 72000.00000 0 -20401241.680 1121051.148 -15268395.717 10 0 60884 72900.00000 0 -22108554.861 799625.990 -12707134.266 10 0 60884 73800.00000 0 -23510813.969 670465.960 -9899162.187 10 0 60884 74700.00000 0 -24564507.956 692576.459 -6899118.829 10 0 60884 75600.00000 0 -25237287.694 817687.549 -3765295.481 10 0 60884 76500.00000 0 -25509241.816 992539.291 -558500.844 10 0 60884 77400.00000 0 -25373669.744 1161374.384 2659116.635 10 0 60884 78300.00000 0 -24837321.672 1268532.312 5825266.761 10 0 60884 79200.00000 0 -23920097.327 1261035.592 8878713.182 10 0 60884 80100.00000 0 -22654217.755 1091059.597 11760444.151 10 0 60884 81000.00000 0 -21082905.805 718182.753 14414796.958 10 0 60884 81900.00000 0 -19258630.927 111323.449 16790515.754 10 0 60884 82800.00000 0 -17240991.352 -749716.892 18841723.902 10 0 60884 83700.00000 0 -15094321.113 -1873168.701 20528793.812 10 0 60884 84600.00000 0 -12885120.134 -3254712.534 21819099.154 10 0 60884 85500.00000 0 -10679412.542 -4877425.605 22687636.324 10 0 60885 0.00000 0 -8540141.141 -6712259.899 23117504.304 10 0 60885 900.00000 0 -6524703.149 -8719034.873 23100234.385 10 0 60885 1800.00000 0 -4682730.566 -10847903.336 22635962.981 10 0 60885 2700.00000 0 -3054202.170 -13041235.557 21733444.395 10 0 60885 3600.00000 0 -1667967.564 -15235843.736 20409901.463 10 0 60885 4500.00000 0 -540743.257 -17365457.913 18690715.630 10 0 60885 5400.00000 0 323376.956 -19363352.420 16608960.358 10 0 60885 6300.00000 0 932876.137 -21165015.117 14204784.657 10 0 60885 7200.00000 0 1308233.741 -22710748.884 11524656.493 10 0 60885 8100.00000 0 1480833.698 -23948096.700 8620478.748 10 0 60885 9000.00000 0 1491405.891 -24833988.015 5548593.268 10 0 60885 9900.00000 0 1388065.951 -25336514.866 2368691.350 10 0 60885 10800.00000 0 1224035.839 -25436261.128 -857348.533 10 0 60885 11700.00000 0 1055142.043 -25127126.740 -4066672.878 10 0 60885 12600.00000 0 937198.338 -24416609.863 -7196690.588 10 0 60885 13500.00000 0 923385.740 -23325533.135 -10186310.154 10 0 60885 14400.00000 0 1061742.922 -21887224.006 -12977150.631 10 0 60885 15300.00000 0 1392876.063 -20146182.850 -15514700.767 10 0 60885 16200.00000 0 1947987.770 -18156294.777 -17749401.686 10 0 60885 17100.00000 0 2747311.109 -15978660.879 -19637630.237 10 0 60885 18000.00000 0 3799017.151 -13679141.132 -21142562.339 10 0 60885 18900.00000 0 5098643.906 -11325713.489 -22234898.510 10 0 60885 19800.00000 0 6629071.837 -8985761.383 -22893436.927 10 0 60885 20700.00000 0 8361047.526 -6723404.566 -23105482.828 10 0 60885 21600.00000 0 10254233.360 -4596985.912 -22867086.728 10 0 60885 22500.00000 0 12258738.655 -2656819.549 -22183107.645 10 0 60885 23400.00000 0 14317067.081 -943294.093 -21067101.206 10 0 60885 24300.00000 0 16366397.750 514590.949 -19541036.143 10 0 60885 25200.00000 0 18341103.412 1700196.314 -17634846.089 10 0 60885 26100.00000 0 20175399.529 2609683.584 -15385826.860 10 0 60885 27000.00000 0 21806012.828 3251909.760 -12837892.314 10 0 60885 27900.00000 0 23174757.638 3647783.508 -10040704.527 10 0 60885 28800.00000 0 24230912.573 3829113.262 -7048696.305 10 0 60885 29700.00000 0 24933299.003 3836998.578 -3920005.923 10 0 60885 30600.00000 0 25251975.637 3719834.931 -715345.333 10 0 60885 31500.00000 0 25169479.895 3531017.841 2503175.813 10 0 60885 32400.00000 0 24681565.892 3326444.263 5673247.624 10 0 60885 33300.00000 0 23797409.894 3161917.039 8733556.092 10 0 60885 34200.00000 0 22539276.152 3090561.614 11624955.502 10 0 60885 35100.00000 0 20941658.212 3160363.167 14291595.550 10 0 60885 36000.00000 0 19049932.082 3411926.870 16681982.826 10 0 60885 36900.00000 0 16918577.406 3876554.355 18749957.742 10 0 60885 37800.00000 0 14609040.028 4574716.290 20455569.747 10 0 60885 38700.00000 0 12187323.558 5514984.612 21765835.624 10 0 60885 39600.00000 0 9721408.298 6693469.144 22655367.653 10 0 60885 40500.00000 0 7278602.573 8093782.892 23106860.655 10 0 60885 41400.00000 0 4922934.193 9687538.860 23111429.157 10 0 60885 42300.00000 0 2712688.170 11435359.705 22668788.235 10 0 60885 43200.00000 0 698191.077 13288360.623 21787274.026 10 0 60885 44100.00000 0 -1080067.320 15190046.490 20483702.373 10 0 60885 45000.00000 0 -2592897.785 17078546.903 18783066.714 10 0 60885 45900.00000 0 -3823399.951 18889098.472 16718079.035 10 0 60885 46800.00000 0 -4767433.664 20556672.729 14328560.526 10 0 60885 47700.00000 0 -5433552.779 22018641.109 11660691.552 10 0 60885 48600.00000 0 -5842403.135 23217365.903 8766133.441 10 0 60885 49500.00000 0 -6025608.883 24102608.149 5701037.525 10 0 60885 50400.00000 0 -6024193.131 24633650.105 2524959.622 10 0 60885 51300.00000 0 -5886599.001 24781041.172 -700299.302 10 0 60885 52200.00000 0 -5666394.797 24527891.426 -3911903.524 10 0 60885 53100.00000 0 -5419761.049 23870655.767 -7047219.454 10 0 60885 54000.00000 0 -5202867.238 22819373.227 -10045053.493 10 0 60885 54900.00000 0 -5069251.252 21397349.327 -12846864.949 10 0 60885 55800.00000 0 -5067314.993 19640293.413 -15397928.294 10 0 60885 56700.00000 0 -5238044.730 17594946.517 -17648420.128 10 0 60885 57600.00000 0 -5613055.251 15317257.366 -19554407.844 10 0 60885 58500.00000 0 -6213042.800 12870183.769 -21078719.225 10 0 60885 59400.00000 0 -7046713.984 10321212.657 -22191674.992 10 0 60885 60300.00000 0 -8110237.132 7739703.983 -22871669.513 10 0 60885 61200.00000 0 -9387239.853 5194170.959 -23105588.276 10 0 60885 62100.00000 0 -10849352.912 2749611.421 -22889054.476 10 0 60885 63000.00000 0 -12457277.064 465002.322 -22226500.689 10 0 60885 63900.00000 0 -14162327.090 -1608938.000 -21131065.371 10 0 60885 64800.00000 0 -15908387.047 -3431627.204 -19624317.509 10 0 60885 65700.00000 0 -17634193.507 -4974059.108 -17735816.192 10 0 60885 66600.00000 0 -19275849.881 -6219748.688 -15502515.120 10 0 60885 67500.00000 0 -20769465.565 -7165145.203 -12968025.025 10 0 60885 68400.00000 0 -22053808.802 -7819499.307 -10181749.600 10 0 60885 69300.00000 0 -23072862.012 -8204193.028 -7197912.859 10 0 60885 70200.00000 0 -23778172.914 -8351563.917 -4074497.706 10 0 60885 71100.00000 0 -24130903.813 -8303275.650 -872116.941 10 0 60885 72000.00000 0 -24103494.369 -8108305.962 2347161.055 10 0 60885 72900.00000 0 -23680869.676 -7820638.254 5521009.201 10 0 60885 73800.00000 0 -22861144.581 -7496755.054 8588038.385 10 0 60885 74700.00000 0 -21655796.139 -7193039.101 11488971.487 10 0 60885 75600.00000 0 -20089298.107 -6963191.107 14167773.122 10 0 60885 76500.00000 0 -18198233.316 -6855771.965 16572714.739 10 0 60885 77400.00000 0 -16029920.994 -6911971.652 18657356.033 10 0 60885 78300.00000 0 -13640615.601 -7163697.361 20381425.468 10 0 60885 79200.00000 0 -11093350.854 -7632060.177 21711584.595 10 0 60885 80100.00000 0 -8455516.771 -8326323.212 22622062.852 10 0 60885 81000.00000 0 -5796268.131 -9243355.324 23095151.757 10 0 60885 81900.00000 0 -3183869.438 -10367614.072 23121549.622 10 0 60885 82800.00000 0 -683084.164 -11671660.101 22700550.204 10 0 60885 83700.00000 0 1647285.646 -13117183.519 21840071.185 10 0 60885 84600.00000 0 3756609.031 -14656501.942 20556520.780 10 0 60885 85500.00000 0 5604294.424 -16234470.310 18874503.458 99